Tracking 20719 objects as of 25-May-2020
HD Live streaming from Space Station
objects crossing your sky now

UFO 1 (USA 98)

Track UFO 1 (USA 98) now!
UFO 1 (USA 98) is classified as:


NORAD ID: 22563
Int'l Code: 1993-015A
Perigee: 36,060.7 km
Apogee: 36,103.8 km
Inclination: 20.6 °
Period: 1,450.9 minutes
Semi major axis: 42453 km
RCS: 8.2516 m2 (large)
Launch date: March 25, 1993
Source: United States (US)
Launch site: AIR FORCE EASTERN TEST RANGE (AFETR)
aabbcc
Your satellite tracking list
Your tracking list is empty




NASA's NSSDC Master Catalog

Two Line Element Set (TLE):
1 22563U 93015A   20143.04216115 +.00000095 +00000-0 +00000-0 0  9990
2 22563 020.5677 109.1250 0005074 263.3114 280.5315 00.99251291102691
Source of the keplerian elements: AFSPC